Regional Weather Roundup
Issued by NWS

Home | Current Version | Previous Version | Graphics & Text | Print | Product List | Glossary On
Versions: 1 2 3 4 5 6 7 8 9 10 11 12 13 14 15 16 17 18 19 20 21 22 23 24 25 26 27 28 29 30 31 32 33 34 35 36 37 38 39 40 41 42 43 44 45 46 47 48 49 50
000
ASUS43 KOAX 031702
RWRNE

WEATHER ROUNDUP FOR NEBRASKA
NATIONAL WEATHER SERVICE OMAHA NE
1200 PM CDT SUN MAY 03 2015

NOTES: SATELLITE DATA IS BEING USED TO AUGMENT CLOUD COVER ABOVE
       12000 FEET.
       "FAIR" INDICATES FEW OR NO CLOUDS BELOW 12,000 FEET WITH NO
       SIGNIFICANT WEATHER AND/OR OBSTRUCTIONS TO VISIBILITY.

  * THESE STATIONS DO NOT REPORT WEATHER SUCH AS RAIN...SNOW OR FOG.

NEZ001>004-019>022-054>056-031800-
NEBRASKA PANHANDLE

CITY           SKY/WX    TMP DP  RH WIND       PRES   REMARKS
SCOTTSBLUFF    SUNNY     66  36  32 NE14      29.96R
ALLIANCE       SUNNY     64  38  38 N22G29    29.94R
CHADRON        MOSUNNY   63  39  41 NE23G29   29.98R
KIMBALL        SUNNY     67  37  33 NW18G25   29.96R
SIDNEY         SUNNY     69  41  36 N17G26    29.94R
$$

NEZ057>060-069>072-079>082-031800-
SOUTHWEST NEBRASKA

CITY           SKY/WX    TMP DP  RH WIND       PRES   REMARKS
NORTH PLATTE   SUNNY     76  51  41 NW15      29.81R
IMPERIAL       SUNNY     79  42  26 NW18G25   29.85R
MCCOOK         SUNNY     80  44  27 W6G16     29.82S
$$

NEZ005>010-023>029-035>040-094-031800-
NORTH CENTRAL NEBRASKA

CITY           SKY/WX    TMP DP  RH WIND       PRES   REMARKS
VALENTINE      MOSUNNY   67  39  35 N22G35    29.87R
AINSWORTH      MOSUNNY   67  43  41 N26G32    29.85R
BROKEN BOW     MOSUNNY   83  46  27 NW9       29.77R
ORD            MOSUNNY   77  46  33 CALM      29.74S
$$

NEZ041-046>049-061>064-073>077-083>087-031800-
SOUTH CENTRAL NEBRASKA

CITY           SKY/WX    TMP DP  RH WIND       PRES   REMARKS
GRAND ISLAND   MOSUNNY   82  50  32 W9        29.76S
AURORA         MOSUNNY   81  49  32 S10       29.76S
HASTINGS       SUNNY     83  45  26 SW7       29.76S
KEARNEY *      SUNNY     81  46  30 SW7       29.77S
$$

NEZ011>018-030>034-042>045-031800-
NORTHEAST NEBRASKA

CITY           SKY/WX    TMP DP  RH WIND       PRES   REMARKS
NORFOLK        MOSUNNY   76  58  53 SE7       29.74R
BLAIR          SUNNY     75  60  60 S10       29.77R
COLUMBUS *     MOSUNNY   75  57  53 S13       29.77R
FREMONT        SUNNY     76  60  56 S3        29.76R
TEKAMAH        MOSUNNY   78  61  55 SW10      29.75S
$$

NEZ050>053-065>068-078-088>093-031800-
SOUTHEAST NEBRASKA

CITY           SKY/WX    TMP DP  RH WIND       PRES   REMARKS
LINCOLN        PTSUNNY   78  56  46 S16G22    29.75S
OMAHA EPPLEY   PTSUNNY   76  60  57 S12       29.75S
FALLS CITY     MOSUNNY   77  59  53 S14G23    29.78S
PLATTSMOUTH    SUNNY     77  58  50 S12       29.77R
$$

NEZ044-045-051>053-067-031800-
OMAHA AREA

CITY           SKY/WX    TMP DP  RH WIND       PRES   REMARKS
OMAHA EPPLEY   PTSUNNY   76  60  57 S12       29.75S
BLAIR          SUNNY     75  60  60 S10       29.77R
FREMONT        SUNNY     76  60  56 S3        29.76R
OFFUTT AFB     SUNNY     77  61  58 S8        29.75S
PLATTSMOUTH    SUNNY     77  58  50 S12       29.77R
$$


USA.gov is the U.S. government's official web portal to all federal, state and local government web resources and services.